DW5678 Kavala GR current weather conditions

sailwx.info

Wind from 041 at 0 knots gusting 2

Air temperature 9.4° C
Dewpoint 6.3° C

Last reported at 2014-Nov-23 01:45 UTC.
Time now 2014-Nov-23 02:07 UTC

Location: N 40°56' E 024°24'.
View on Google Maps.

See reports from other nearby stations

  
Tides and Currents Weather Stations Pressure Air Temp Water Temp Dewpoint Dewpoint Depression Visibility Wind Speed Wind Dir Waves Ship Positions
date/time (UTC)wind fromknots sea level pressurealtimeterstation pressurevisibilityair tempwater tempwave heightnotes
2014-Nov-23 01:45 041 0 gusting 2 9.4
2014-Nov-23 01:30 024 9.4
2014-Nov-23 01:15 033 9.4
2014-Nov-23 01:00 057 0 gusting 2 9.4
2014-Nov-23 00:45 023 9.4
2014-Nov-23 00:30 351 10.0
2014-Nov-23 00:15 350 10.0
2014-Nov-23 00:00 345 10.0
2014-Nov-22 23:45 018 0 gusting 2 10.0
2014-Nov-22 23:30 332 0 gusting 4 10.0
2014-Nov-22 23:15 340 0 gusting 2 10.6
2014-Nov-22 23:00 049 10.6
2014-Nov-22 22:45 022 0 gusting 2 10.6
2014-Nov-22 22:30 024 10.6
2014-Nov-22 22:15 021 0 gusting 2 10.6
2014-Nov-22 22:00 042 0 gusting 2 10.6
2014-Nov-22 21:45 005 0 gusting 2 10.6
2014-Nov-22 21:30 016 10.6
2014-Nov-22 21:15 023 10.6
2014-Nov-22 21:00 026 10.6
2014-Nov-22 20:45 038 10.6
2014-Nov-22 20:30 024 10.6
2014-Nov-22 20:15 032 10.6
2014-Nov-22 20:00 035 0 gusting 2 10.6
2014-Nov-22 19:45 045 10.6
2014-Nov-22 19:30 038 0 gusting 2 10.6
2014-Nov-22 19:15 023 1 gusting 4 10.6
2014-Nov-22 19:00 030 10.6
2014-Nov-22 18:45 040 1 gusting 5 10.6
2014-Nov-22 18:30 016 2 gusting 5 10.6
2014-Nov-22 18:15 056 1 gusting 6 10.6
2014-Nov-22 18:00 043 0 gusting 4 10.6
2014-Nov-22 17:45 051 0 gusting 5 10.6
2014-Nov-22 17:30 005 1 gusting 4 10.6
2014-Nov-22 17:15 036 0 gusting 4 10.6
2014-Nov-22 17:00 038 1 gusting 4 10.6
2014-Nov-22 16:45 044 0 gusting 1 10.6
2014-Nov-22 16:30 031 10.6
2014-Nov-22 16:15 038 1 gusting 2 10.6
2014-Nov-22 16:00 017 0 gusting 4 10.6
2014-Nov-22 15:45 057 2 gusting 5 10.6
2014-Nov-22 15:30 040 1 gusting 5 10.6
2014-Nov-22 15:15 032 1 gusting 2 10.6
2014-Nov-22 15:00 021 2 gusting 4 11.1
2014-Nov-22 14:45 029 1 gusting 4 11.1
2014-Nov-22 14:30 051 1 gusting 4 11.1
2014-Nov-22 14:15 034 0 gusting 4 11.1
2014-Nov-22 14:00 050 1 gusting 4 11.1
2014-Nov-22 13:45 026 1 gusting 4 11.7
2014-Nov-22 13:30 080 0 gusting 2 11.7
2014-Nov-22 13:15 062 1 gusting 2 11.7
2014-Nov-22 13:00 045 0 gusting 2 11.7
2014-Nov-22 12:45 054 11.7
2014-Nov-22 12:30 099 0 gusting 4 11.7
2014-Nov-22 12:15 139 0 gusting 4 11.7
2014-Nov-22 12:00 043 0 gusting 2 12.2
2014-Nov-22 11:45 033 0 gusting 4 12.2
2014-Nov-22 11:30 127 0 gusting 2 12.2
2014-Nov-22 11:15 180 0 gusting 5 12.2
2014-Nov-22 11:00 122 1 gusting 5 12.8
2014-Nov-22 10:45 143 1 gusting 4 12.2
2014-Nov-22 10:30 040 1 gusting 2 12.2
2014-Nov-22 10:15 064 0 gusting 6 12.2
2014-Nov-22 10:00 123 1 gusting 4 12.8
2014-Nov-22 09:45 196 1 gusting 5 12.2
2014-Nov-22 09:30 282 0 gusting 5 12.2
2014-Nov-22 09:15 251 0 gusting 4 12.2
2014-Nov-22 09:00 204 1 gusting 6 11.7
2014-Nov-22 08:45 213 0 gusting 5 11.1
2014-Nov-22 08:30 223 2 gusting 7 11.1
2014-Nov-22 08:15 279 2 gusting 6 10.6
2014-Nov-22 08:00 263 1 gusting 5 11.1
2014-Nov-22 07:45 249 0 gusting 2 11.1
2014-Nov-22 07:30 338 11.7
2014-Nov-22 07:15 355 10.6
2014-Nov-22 07:00 307 0 gusting 2 10.0
2014-Nov-22 06:45 323 10.0
2014-Nov-22 06:30 331 9.4
2014-Nov-22 06:15 346 9.4
2014-Nov-22 06:00 346 8.9
2014-Nov-22 05:45 346 8.9
2014-Nov-22 05:30 339 8.9
2014-Nov-22 05:15 339 8.9
2014-Nov-22 05:00 338 8.9
2014-Nov-22 04:45 329 8.9
2014-Nov-22 04:30 331 8.9
2014-Nov-22 04:15 312 8.9
2014-Nov-22 04:00 217 8.9
2014-Nov-22 03:45 217 8.9
2014-Nov-22 03:30 217 8.9
2014-Nov-22 03:15 215 8.9
2014-Nov-22 03:00 257 9.4
2014-Nov-22 02:45 257 9.4
2014-Nov-22 02:30 250 0 gusting 2 9.4
2014-Nov-22 02:15 306 0 gusting 8 9.4
2014-Nov-22 02:00 157 1 gusting 5 9.4
2014-Nov-22 01:45 343 0 gusting 4 9.4
2014-Nov-22 01:30 144 10.0
2014-Nov-22 01:15 282 1 gusting 5 10.0
2014-Nov-22 01:00 326 0 gusting 6 10.0
2014-Nov-22 00:45 305 1 gusting 10 10.0
2014-Nov-22 00:30 248 0 gusting 8 10.0
2014-Nov-22 00:15 10.0
2014-Nov-22 00:00 342 1 gusting 5 10.0
2014-Nov-21 23:45 358 0 gusting 4 10.0
2014-Nov-21 23:30 333 0 gusting 2 10.6
2014-Nov-21 23:15 343 10.6
2014-Nov-21 23:00 342 10.6
2014-Nov-21 22:45 334 10.6
2014-Nov-21 22:30 335 11.1
2014-Nov-21 22:15 334 0 gusting 2 11.1
2014-Nov-21 22:00 337 11.1
2014-Nov-21 21:45 338 11.1
2014-Nov-21 21:30 015 11.1
2014-Nov-21 21:15 015 11.1
2014-Nov-21 21:00 013 11.1
2014-Nov-21 20:45 335 0 gusting 2 11.7
2014-Nov-21 20:30 346 11.7
2014-Nov-21 20:15 053 11.7
2014-Nov-21 20:00 347 0 gusting 2 11.7
2014-Nov-21 19:45 038 11.7
2014-Nov-21 19:30 005 11.7
2014-Nov-21 19:15 023 12.2
2014-Nov-21 19:00 042 12.2
2014-Nov-21 18:45 038 0 gusting 2 12.2
2014-Nov-21 18:30 049 0 gusting 2 12.2
2014-Nov-21 18:15 031 12.8
2014-Nov-21 18:00 026 0 gusting 5 12.8
2014-Nov-21 17:45 027 1 gusting 4 12.8
2014-Nov-21 17:15 040 1 gusting 4 12.2
2014-Nov-21 17:00 014 2 gusting 5 12.2
2014-Nov-21 16:45 053 2 gusting 6 12.2
2014-Nov-21 16:30 033 1 gusting 5 12.2
2014-Nov-21 16:15 033 1 gusting 5 12.2
2014-Nov-21 16:00 032 2 gusting 6 12.2
2014-Nov-21 15:45 037 2 gusting 5 12.8
2014-Nov-21 15:30 028 0 gusting 2 12.8
2014-Nov-21 15:15 157 13.3
2014-Nov-21 15:00 156 13.9
2014-Nov-21 14:45 156 14.4
2014-Nov-21 14:30 156 14.4
2014-Nov-21 14:15 164 15.0
2014-Nov-21 14:00 215 0 gusting 6 15.6
2014-Nov-21 13:45 321 0 gusting 6 15.6
2014-Nov-21 13:30 268 0 gusting 5 15.6
2014-Nov-21 13:15 269 1 gusting 6 15.6
2014-Nov-21 13:00 272 2 gusting 8 15.6
2014-Nov-21 12:45 267 2 gusting 7 15.6
2014-Nov-21 12:30 280 0 gusting 6 15.6
2014-Nov-21 12:15 292 2 gusting 10 15.6
2014-Nov-21 12:00 249 1 gusting 11 15.6
2014-Nov-21 11:45 262 1 gusting 6 15.6
2014-Nov-21 11:30 250 2 gusting 10 15.0
2014-Nov-21 11:15 235 1 gusting 11 15.6
2014-Nov-21 11:00 181 0 gusting 10 15.0
2014-Nov-21 10:45 227 4 gusting 11 15.0
2014-Nov-21 10:30 274 1 gusting 6 14.4
2014-Nov-21 10:15 288 1 gusting 7 14.4
2014-Nov-21 10:00 339 2 gusting 8 13.9
2014-Nov-21 09:45 300 2 gusting 7 13.9
2014-Nov-21 09:30 319 2 gusting 6 13.3
2014-Nov-21 09:15 263 1 gusting 6 12.8
2014-Nov-21 09:00 188 1 gusting 6 12.8
2014-Nov-21 08:45 300 3 gusting 7 12.2
2014-Nov-21 08:30 279 1 gusting 10 11.7
2014-Nov-21 08:15 337 3 gusting 8 11.7
2014-Nov-21 08:00 359 2 gusting 11 11.1
2014-Nov-21 07:45 041 3 gusting 11 11.1
2014-Nov-21 07:30 045 3 gusting 7 11.1
2014-Nov-21 07:15 005 2 gusting 8 11.1
2014-Nov-21 07:00 263 2 gusting 10 11.1
2014-Nov-21 06:45 325 1 gusting 7 11.1
2014-Nov-21 06:30 009 2 gusting 7 11.1
2014-Nov-21 06:15 002 2 gusting 8 10.6
2014-Nov-21 06:00 004 2 gusting 10 10.0
2014-Nov-21 05:45 008 2 gusting 10 10.0
2014-Nov-21 05:30 350 2 gusting 10 10.0
2014-Nov-21 05:15 007 4 gusting 10 10.0
2014-Nov-21 05:00 356 4 gusting 10 10.0
2014-Nov-21 04:45 052 2 gusting 10 10.0
2014-Nov-21 04:30 041 4 gusting 8 10.0
2014-Nov-21 04:15 011 3 gusting 10 10.0
2014-Nov-21 04:00 185 1 gusting 6 10.6
2014-Nov-21 03:45 355 10.6
2014-Nov-21 03:30 006 1 gusting 6 10.6
2014-Nov-21 03:15 034 1 gusting 7 11.1
2014-Nov-21 03:00 339 1 gusting 8 11.1
2014-Nov-21 02:45 026 1 gusting 7 11.1
2014-Nov-21 02:30 322 1 gusting 11 11.1
2014-Nov-21 02:15 357 2 gusting 8 10.6
2014-Nov-21 02:00 347 3 gusting 10 11.1